Weather Roundup
Issued by NWS Chicago, IL

Home | Current Version | Previous Version | Text Only | Print | Product List | Glossary Off
Versions: 1 2 3 4 5 6 7 8 9 10 11 12 13 14 15 16 17 18 19 20 21 22 23 24 25 26 27 28 29 30 31 32 33 34 35 36 37 38 39 40 41 42 43 44 45 46 47 48 49 50

000
NZUS59 KLOT 310706
HRRLOT

CHICAGO AREA WEATHER ROUNDUP
NATIONAL WEATHER SERVICE CHICAGO/ROMEOVILLE IL
200 AM CDT THU JUL 31 2014

NOTE: "FAIR" INDICATES FEW OR NO CLOUDS BELOW 12,000 FEET WITH NO
SIGNIFICANT WEATHER AND/OR OBSTRUCTIONS TO VISIBILITY.

* THESE STATIONS ARE NOT UNDER NWS QUALITY CONTROL. THEY ALSO MAY NOT
  REPORT WEATHER SUCH AS PRECIPITATION OR FOG.

ILZ005-006-012>014-019>023-310800-
NORTHEAST ILLINOIS

CITY           SKY/WX    TMP DP  RH WIND       PRES   REMARKS
OHARE          CLEAR     62  55  77 CALM      30.03F
MIDWAY         CLEAR     65  60  84 S7        30.03F
AURORA         CLEAR     55  52  89 CALM      30.04F
LANSING*       CLEAR     58  56  94 CALM      30.04S FOG
JOLIET*        CLEAR     57  56  96 CALM      30.05F FOG
WAUKEGAN       CLEAR     59  56  89 SW6       30.02S
DUPAGE AIRPORT CLEAR     60  56  86 CALM      30.03F
WHEELING       CLEAR     61  56  83 CALM      30.05S
KANKAKEE*      FOG       56  56  98 CALM      30.05S VSB 1/2
MORRIS*        CLEAR     59  59 100 CALM      30.04S FOG
LEWIS AIRPORT* CLEAR     58  57  96 S3        30.04S FOG
NORTHERLY IS     N/A     65  60  84 SW3         N/A
$$

WIZ051-052-058>065-066-070>072-310800-
SOUTHEAST WISCONSIN

CITY           SKY/WX    TMP DP  RH WIND       PRES   REMARKS
MILWAUKEE      MOCLDY    63  55  75 CALM      30.01S
KENOSHA*       CLEAR     59  57  93 SW7       30.02F
RACINE*        PTCLDY    61  56  83 SW8       30.02F
BURLINGTON     CLEAR     52  52  99 SW3       30.02S
WAUKESHA       MOCLDY    57  52  82 CALM      30.02F
WEST BEND      PTCLDY    59  54  82 SW5       30.00F
$$

INZ001>003-010>013-019-020-310800-
NORTHWEST INDIANA

CITY           SKY/WX    TMP DP  RH WIND       PRES   REMARKS
GARY*          CLEAR     58  56  94 CALM      30.05S FOG
MICHIGAN CITY* NOT AVBL
RENSSELAER*    NOT AVBL
VALPARAISO     CLEAR     57  56  96 CALM      30.05S
$$

LMZ740>746-310800-
SOUTHERN LAKE MICHIGAN

STATION/POSITION TIME  SKY/WX   TEMP WIND        PRES    VSBY
                                AIR  DIR/SP/G
                 (UTC)          (F)  (DEG/KT/KT) (MB)    (MI)
HARRISON CRIB    0700            65  190/  9/ 10   N/A
BURNHAM HARBOR   0700            65  210/  3/  4   N/A
CALUMET HARBOR   0700            64  210/  2/  4 1015.8F
BURNS HARBOR     NOT AVBL
MICHIGAN CITY    0700            63  140/  5/  6   N/A
$$

ABBREVIATIONS USED IN REMARKS
   TC - TEMPERATURE IN CELSIUS
  WCI - WIND CHILL INDEX
   HX - HEAT INDEX
  VSB - VISIBILITY
$$



USA.gov is the U.S. government's official web portal to all federal, state and local government web resources and services.